Regional Weather Roundup
Issued by NWS

Home | Current Version | Previous Version | Graphics & Text | Print | Product List | Glossary On
Versions: 1 2 3 4 5 6 7 8 9 10 11 12 13 14 15 16 17 18 19 20 21 22 23 24 25 26 27 28 29 30 31 32 33 34 35 36 37 38 39 40 41 42 43 44 45 46 47 48 49 50
000
ASUS43 KDTX 260310
RWRMI
MICHIGAN HOURLY REGIONAL WEATHER ROUNDUP
NATIONAL WEATHER SERVICE DETROIT/PONTIAC MI
1000 PM EST THU DEC 25 2014

NOTE: "FAIR" INDICATES FEW OR NO CLOUDS BELOW 12,000 FEET WITH NO
SIGNIFICANT WEATHER AND/OR OBSTRUCTION TO VISIBILITY.

MIZ047>049-052>055-059>063-066>070-074>076-081>083-260400-
SOUTHEAST LOWER MICHIGAN

CITY           SKY/WX    TMP DP  RH WIND       PRES   REMARKS
ADRIAN         PTCLDY    33  29  85 SW8       30.12S
ALMA           CLEAR     32  31  94 S10       30.04R
ANN ARBOR      PTCLDY    32  29  88 SW7       30.11R
BAD AXE        MOCLDY    33  30  88 SW8       30.05S
DETROIT CITY   CLEAR     37  29  72 SW8       30.11F
DETROIT        MOCLDY    33  30  88 S8        30.13R
FLINT          PTCLDY    35  28  75 S10       30.08R
GROSSE ILE     CLEAR     36  30  80 S9        30.12S
HILLSDALE      MOCLDY    33  31  92 S6        30.08S
HOWELL         PTCLDY    32  29  90 SW7       30.08R

CITY           SKY/WX    TMP DP  RH WIND       PRES   REMARKS
JACKSON        MOCLDY    34  28  79 SW8       30.08R
LAMBERTVILLE   PTCLDY    36  30  80 S6        30.14R
LANSING        PTCLDY    34  29  82 S9        30.07R
LAPEER         NOT AVBL
MASON          MOCLDY    33  29  86 S3        30.07R
MONROE         PTCLDY    36  30  80 S5        30.12R
MT. CLEMENS    MOCLDY    35  33  93 SW9       30.09F
PONTIAC        PTCLDY    33  28  81 SW7       30.08S
PORT HOPE        N/A     35  28  75 SW12G17   30.02R
PORT HURON     PTCLDY    34  30  86 SW6       30.10F
TRI CITIES     CLEAR     35  29  78 SW12      30.04S
YPSILANTI      CLEAR     37  29  72 SW9       30.12R
$$
MIZ043>046-050>051-056>058-064>065-071>073-077>080-260400-
SOUTHWEST LOWER MICHIGAN

CITY           SKY/WX    TMP DP  RH WIND       PRES   REMARKS
BATTLE CREEK   MOCLDY    35  29  78 S10       30.06F
BENTON HARBOR  CLOUDY    37  31  78 S13       30.04S
BIG RAPIDS     CLOUDY    35  32  90 S8        29.99R
COLDWATER      PTCLDY    34  30  86 MISG      30.08F
HOLLAND        MOCLDY    37  31  78 S12       30.02F
GRAND RAPIDS   MOCLDY    34  30  85 S12       30.03S
KALAMAZOO      MOCLDY    35  30  82 S9        30.07S
MARSHALL       PTCLDY    33  29  86 S8        30.07S
MUSKEGON       MOCLDY    38  33  82 S10       30.00F
$$
MIZ016>042-260400-
NORTHERN LOWER MICHIGAN

CITY           SKY/WX    TMP DP  RH WIND       PRES   REMARKS
ALPENA         CLOUDY    35  29  78 SW8       29.98R
BEAVER ISLAND  LGT RAIN  34  33  97 SW10G16   29.94R
BELLAIRE       CLOUDY    37  32  83 S5        29.97R
CADILLAC       CLOUDY    33  31  92 SW14      29.95S
CHARLEVOIX     DRIZZLE   36  33  89 SW8       29.97S
FRANKFORT      CLOUDY    38  35  88 S7        29.96R
GAYLORD        CLOUDY    32  30  92 SW9       29.94R
GRAYLING       CLOUDY    33  30  90 SW6       29.97R
HARBOR SPRINGS CLOUDY    36  32  87 SW7       29.94S
HOUGHTON LAKE  CLOUDY    34  29  82 SW9       29.98R
MANISTEE       MOCLDY    36  28  75 SE5       29.98S
OSCODA         CLOUDY    35  30  83 SW10G17   29.99F
PELLSTON       LGT RAIN  36  32  85 SW7       29.94R
TRAVERSE CITY  CLOUDY    37  31  78 S5        29.96R
$$
MIZ007>008-015-260400-
EASTERN UPPER MICHIGAN

CITY           SKY/WX    TMP DP  RH WIND       PRES   REMARKS
KINROSS        CLOUDY    34  34 100 SW6       29.91R
MACKINAC ISLAN CLOUDY    36  35  96 W9G16     29.93R
NEWBERRY       CLOUDY    31  31  99 SW8       29.91R
S. S. MARIE    CLOUDY    34  30  85 SW10      29.90R
$$
MIZ004>006-011>014-085-260400-
CENTRAL UPPER MICHIGAN

CITY           SKY/WX    TMP DP  RH WIND       PRES   REMARKS
MANISTIQUE     FLURRIES  33  32  98 MISG      29.93R
ESCANABA       CLOUDY    32  30  93 SW3       29.92S
MENOMINEE      PTCLDY    34  28  80 SW5       29.92R
SAWYER-GWINN   CLOUDY    32  30  93 SW7       29.88R
$$
MIZ001>003-009>011-084-260400-
WESTERN UPPER MICHIGAN

CITY           SKY/WX    TMP DP  RH WIND       PRES   REMARKS
IRON MOUNTAIN  LGT SNOW  32  30  92 S3        29.89R FOG
HOUGHTON       CLOUDY    32  28  85 W8        29.84R
COPPER HARBOR    N/A     34  30  85 W5        29.85S
IRONWOOD       CLOUDY    30  30 100 CALM      29.85R
$$

ABBREVIATIONS USED IN REMARKS
   TC - TEMPERATURE IN CELSIUS
  WCI - WIND CHILL INDEX
   HX - HEAT INDEX
  VSB - VISIBILITY




USA.gov is the U.S. government's official web portal to all federal, state and local government web resources and services.